Stations météo

réclame
Mon MeteoGroup
Lelystad aws, Pays-Bas (6269): Température de l'air & dewpoint: 10.07.2019 00:00:00 - 16.07.2019 00:00:00 (CEST)Lelystad aws, Pays-Bas (6269): Température de l'air 5cm: 10.07.2019 00:00:00 - 16.07.2019 00:00:00 (CEST)Lelystad aws, Pays-Bas (6269): Vitesse du vent & gusts: 10.07.2019 00:00:00 - 16.07.2019 00:00:00 (CEST)Lelystad aws, Pays-Bas (6269): Direction du vent: 10.07.2019 00:00:00 - 16.07.2019 00:00:00 (CEST)Lelystad aws, Pays-Bas (6269): reduced air pressure: 10.07.2019 00:00:00 - 16.07.2019 00:00:00 (CEST)Lelystad aws, Pays-Bas (6269): visibility: 10.07.2019 00:00:00 - 16.07.2019 00:00:00 (CEST)Lelystad aws, Pays-Bas (6269): Quantités de précipitations: 10.07.2019 00:00:00 - 16.07.2019 00:00:00 (CEST)
Date & Time tt [°C] td [°C] tt 5cm [°C] ff [km/h] ff [knt] fx [km/h] fx [knt] dd ppp [hPa] vv [km] rr [mm]
16.07.2019 00:00:00 14,4 12,0 13,9 4 2 22 12 WNW 1020,0 50 0,0
15.07.2019 23:00:00 14,9 11,9 14,6 11 6 18 10 WNW 1020,1 41 0,0
15.07.2019 22:00:00 14,9 11,7 14,8 11 6 22 12 N 1020,1 27 0,0
15.07.2019 21:00:00 15,6 10,2 15,5 11 6 22 12 NNW 1020,0 49 0,0
15.07.2019 20:00:00 15,9 10,6 16,0 14 8 22 12 NNW 1019,9 43 0,0
15.07.2019 19:00:00 16,4 10,8 16,8 14 8 32 18 NNW 1020,1 36 0,0
15.07.2019 18:00:00 16,8 11,2 17,7 14 8 29 16 NNW 1020,3 41 0,0
15.07.2019 17:00:00 17,6 12,0 18,4 14 8 29 16 NNW 1020,3 35 0,0
15.07.2019 16:00:00 17,4 12,1 18,3 14 8 29 16 NNW 1020,4 33 0,0
15.07.2019 15:00:00 16,1 12,2 16,4 11 6 22 12 NNW 1020,4 37 0,0
15.07.2019 14:00:00 16,4 11,5 17,6 14 8 25 14 NW 1020,5 32 0,0
15.07.2019 13:00:00 16,4 10,9 17,9 14 8 25 14 NW 1020,5 38 0,0
15.07.2019 12:00:00 16,0 10,9 16,9 14 8 22 12 WNW 1020,5 32 0,0
15.07.2019 11:00:00 15,6 10,0 15,9 11 6 18 10 NNW 1020,5 40 0,0
15.07.2019 10:00:00 14,0 11,6 14,4 7 4 18 10 NE 1020,6 14 0,0
15.07.2019 09:00:00 14,7 10,2 14,6 11 6 18 10 NW 1020,3 35 0,0
15.07.2019 08:00:00 14,6 9,7 14,2 11 6 18 10 NW 1020,1 42 0,0
15.07.2019 07:00:00 13,5 11,5 13,5 4 2 7 4 S 1020,2 15 0,0
15.07.2019 06:00:00 13,5 11,3 13,3 7 4 7 4 E 1020,1 19 0,0
15.07.2019 05:00:00 13,6 11,2 13,4 7 4 14 8 NE 1019,9 21 0,0
15.07.2019 04:00:00 13,9 11,1 13,3 4 2 7 4 NNE 1020,2 25 0,0
15.07.2019 03:00:00 13,8 11,6 13,4 4 2 11 6 NE 1020,7 23 0,0
15.07.2019 02:00:00 14,0 11,4 13,7 7 4 22 12 NNE 1020,8 27 0,0
15.07.2019 01:00:00 14,8 11,6 14,3 14 8 22 12 N 1020,8 27 0,0
15.07.2019 00:00:00 14,6 11,4 14,1 4 2 11 6 NE 1020,8 31 0,0
14.07.2019 23:00:00 15,3 10,9 15,0 11 6 18 10 N 1020,8 35 0,0
14.07.2019 22:00:00 15,3 11,3 15,0 11 6 22 12 NNW 1021,0 39 0,0
14.07.2019 21:00:00 15,6 10,5 15,4 11 6 25 14 N 1020,8 49 0,0
14.07.2019 20:00:00 15,7 11,6 15,5 7 4 25 14 NNW 1020,6 48 0,0
14.07.2019 19:00:00 15,6 11,9 15,5 14 8 29 16 NNW 1020,7 22 0,0
14.07.2019 18:00:00 15,9 11,6 16,6 22 12 32 18 N 1020,9 41 0,0
14.07.2019 17:00:00 17,6 11,7 19,2 18 10 32 18 NNW 1020,7 43 0,0
14.07.2019 16:00:00 18,3 11,9 20,3 22 12 32 18 N 1020,8 42 0,0
14.07.2019 15:00:00 17,4 11,7 18,6 22 12 32 18 N 1020,9 33 0,0
14.07.2019 14:00:00 17,0 12,1 18,2 14 8 29 16 N 1020,8 37 0,0
14.07.2019 13:00:00 17,8 11,8 19,5 14 8 25 14 N 1020,6 38 0,0
14.07.2019 12:00:00 17,3 12,6 16,8 11 6 25 14 N 1020,7 38 0,0
14.07.2019 11:00:00 17,0 13,4 16,9 14 8 29 16 NNE 1020,5 43 0,1
14.07.2019 10:00:00 14,8 13,0 15,3 11 6 18 10 N 1020,4 7 0,0
14.07.2019 09:00:00 14,4 13,0 15,2 11 6 22 12 NNE 1020,3 10 0,1
14.07.2019 08:00:00 13,9 12,4 13,9 4 2 22 12 NNW 1020,0 13 0,1
14.07.2019 07:00:00 13,8 11,9 13,8 7 4 22 12 N 1020,1 7 0,0
14.07.2019 06:00:00 13,8 11,6 13,5 11 6 22 12 N 1020,0 11 0,0
14.07.2019 05:00:00 14,6 11,0 14,3 14 8 25 14 N 1019,9 20 0,0
14.07.2019 04:00:00 15,0 10,2 14,7 11 6 22 12 N 1020,1 36 0,0
14.07.2019 03:00:00 15,1 10,7 14,7 7 4 22 12 N 1020,2 27 0,0
14.07.2019 02:00:00 15,1 10,6 14,7 7 4 18 10 N 1020,3 31 0,0
14.07.2019 01:00:00 15,3 9,5 14,8 11 6 25 14 NW 1020,3 36 0,0
14.07.2019 00:00:00 15,4 10,4 15,1 14 8 25 14 N 1020,6 32 0,0
13.07.2019 23:00:00 15,7 10,0 15,2 14 8 32 18 NNW 1020,6 43 0,0
13.07.2019 22:00:00 15,9 10,7 15,6 14 8 29 16 NNW 1020,4 45 0,0
13.07.2019 21:00:00 16,4 11,1 16,2 14 8 29 16 NNW 1020,0 48 0,0
13.07.2019 20:00:00 16,5 11,7 16,4 14 8 29 16 NNW 1019,7 42 0,0
13.07.2019 19:00:00 15,7 13,8 15,7 18 10 29 16 NNW 1019,5 7 0,0
13.07.2019 18:00:00 17,5 12,2 18,3 22 12 36 19 N 1019,5 43 0,0
13.07.2019 17:00:00 18,2 12,5 19,1 22 12 36 19 N 1019,5 32 0,0
13.07.2019 16:00:00 17,9 13,1 18,8 22 12 36 19 N 1019,4 43 0,0
13.07.2019 15:00:00 18,3 13,4 19,0 18 10 29 16 NNW 1019,1 45 0,0
13.07.2019 14:00:00 17,4 14,4 18,5 14 8 25 14 NNW 1019,0 21 0,0
13.07.2019 13:00:00 17,1 15,4 18,4 11 6 18 10 WNW 1018,7 12 0,2
13.07.2019 12:00:00 16,2 14,7 16,3 11 6 22 12 NNW 1018,5 5 0,1
13.07.2019 11:00:00 18,9 13,6 19,9 14 8 22 12 WNW 1018,0 47 0,0
13.07.2019 10:00:00 18,7 13,3 19,6 11 6 22 12 N 1017,9 46 0,0
13.07.2019 09:00:00 18,3 13,3 18,4 11 6 18 10 N 1017,5 45 0,0
13.07.2019 08:00:00 16,6 13,6 16,3 7 4 11 6 N 1016,9 48 0,0
13.07.2019 07:00:00 16,6 14,5 16,2 7 4 11 6 NNE 1016,5 29 0,0
13.07.2019 06:00:00 16,2 14,4 15,8 7 4 18 10 N 1016,1 20 0,0
13.07.2019 05:00:00 16,1 15,0 15,5 7 4 14 8 WNW 1015,5 7 0,0
13.07.2019 04:00:00 16,3 14,5 15,8 11 6 14 8 WNW 1015,5 15 0,0
13.07.2019 03:00:00 15,9 14,2 15,0 7 4 18 10 W 1015,3 19 0,0
13.07.2019 02:00:00 16,2 14,3 15,7 11 6 22 12 NW 1015,2 17 0,0
13.07.2019 01:00:00 16,6 15,1 16,3 11 6 18 10 WNW 1015,1 11 0,0
13.07.2019 00:00:00 16,8 15,2 16,4 11 6 18 10 WNW 1014,7 9 0,0
12.07.2019 23:00:00 17,0 14,9 16,7 11 6 18 10 NW 1014,4 16 0,0
12.07.2019 22:00:00 16,3 14,4 15,7 11 6 18 10 WNW 1013,9 18 0,0
12.07.2019 21:00:00 17,2 14,6 17,1 14 8 25 14 WNW 1013,4 22 0,0
12.07.2019 20:00:00 17,9 14,6 18,2 14 8 29 16 WNW 1012,8 26 0,0
12.07.2019 19:00:00 18,1 14,7 18,4 18 10 29 16 WNW 1012,4 24 0,0
12.07.2019 18:00:00 18,1 15,6 18,4 14 8 25 14 NW 1012,0 20 0,0
12.07.2019 17:00:00 17,5 15,4 17,1 11 6 18 10 WNW 1011,6 30 0,2
12.07.2019 16:00:00 15,9 15,3 15,6 18 10 36 19 SW 1012,0 7 8,0
12.07.2019 15:00:00 15,4 14,3 15,2 25 14 36 19 WSW 1011,9 9 12,0
12.07.2019 14:00:00 17,0 15,0 16,9 7 4 18 10 SW 1011,2 40 0,0
12.07.2019 13:00:00 16,9 15,3 16,4 4 2 43 23 WSW 1010,7 30 0,6
12.07.2019 12:00:00 20,1 16,1 20,3 14 8 22 12 WNW 1010,3 13 0,0
12.07.2019 11:00:00 21,1 16,3 22,4 11 6 22 12 W 1010,3 17 0,0
12.07.2019 10:00:00 19,8 16,8 20,4 11 6 14 8 SSW 1010,3 11 0,0
12.07.2019 09:00:00 18,2 16,0 18,6 14 8 18 10 SW 1010,5 8 0,0
12.07.2019 08:00:00 16,8 15,2 16,3 7 4 11 6 SSW 1010,7 7 0,0
12.07.2019 07:00:00 15,4 14,4 15,1 7 4 7 4 S 1010,6 6 0,0
12.07.2019 06:00:00 14,5 13,9 12,3 7 4 11 6 SE 1010,5 5 0,0
12.07.2019 05:00:00 14,1 13,4 12,6 7 4 11 6 SSE 1010,4 6 0,0
12.07.2019 04:00:00 14,2 13,8 12,9 4 2 7 4 S 1010,8 6 0,0
12.07.2019 03:00:00 13,9 13,3 11,1 4 2 7 4 SSE 1011,1 4,9 0,0
12.07.2019 02:00:00 13,9 13,5 10,8 4 2 7 4 S 1011,4 6 0,0
12.07.2019 01:00:00 14,2 13,7 11,0 4 2 7 4 S 1011,8 8 0,0
12.07.2019 00:00:00 15,0 13,5 12,4 4 2 7 4 SSE 1011,9 18 0,0
11.07.2019 23:00:00 17,2 14,1 14,7 7 4 11 6 WNW 1012,0 41 0,0
11.07.2019 22:00:00 18,4 15,1 17,8 7 4 14 8 WNW 1011,9 31 0,0
11.07.2019 21:00:00 19,2 14,8 18,8 7 4 22 12 W 1011,8 43 0,0
11.07.2019 20:00:00 20,1 14,4 20,5 14 8 25 14 WNW 1011,6 38 0,0
11.07.2019 19:00:00 21,2 16,2 21,9 14 8 29 16 WNW 1011,5 26 0,0
11.07.2019 18:00:00 21,2 16,7 22,8 14 8 22 12 WNW 1011,4 12 0,0
11.07.2019 17:00:00 21,5 16,7 22,5 14 8 18 10 NW 1011,3 13 0,2
11.07.2019 16:00:00 19,1 16,7 19,4 14 8 18 10 W 1011,8 6 0,4
11.07.2019 15:00:00 20,3 16,6 20,9 7 4 14 8 NW 1011,7 10 0,0
11.07.2019 14:00:00 20,7 15,4 21,6 11 6 14 8 W 1011,6 12 0,0
11.07.2019 13:00:00 19,2 16,3 19,3 7 4 11 6 W 1012,0 9 0,2
11.07.2019 12:00:00 19,5 15,7 19,5 7 4 22 12 SSW 1012,0 11 0,0
11.07.2019 11:00:00 18,6 15,8 19,5 11 6 14 8 S 1012,2 10 0,0
11.07.2019 10:00:00 17,6 15,6 18,2 7 4 11 6 SSE 1012,6 8 0,0
11.07.2019 09:00:00 16,5 15,0 16,4 0 0 11 6 N 1012,8 7 0,0
11.07.2019 08:00:00 16,1 14,6 15,6 7 4 14 8 SW 1012,7 7 0,0
11.07.2019 07:00:00 15,9 14,6 15,5 11 6 18 10 S 1012,6 6 0,0
11.07.2019 06:00:00 15,3 14,2 14,7 11 6 18 10 S 1013,0 5 0,0
11.07.2019 05:00:00 15,1 14,2 14,6 14 8 22 12 S 1013,4 3,6 0,0
11.07.2019 04:00:00 15,0 14,3 14,7 11 6 14 8 S 1014,2 2,8 0,0
11.07.2019 03:00:00 14,9 14,2 14,6 11 6 18 10 S 1014,7 3,1 0,5
11.07.2019 02:00:00 14,7 14,1 14,5 11 6 14 8 SSE 1015,1 2,5 0,0
11.07.2019 01:00:00 14,7 14,2 14,4 7 4 11 6 S 1015,7 2,4 0,0
11.07.2019 00:00:00 14,6 14,1 14,3 7 4 14 8 S 1016,1 2,6 0,0
10.07.2019 23:00:00 14,6 14,0 14,2 7 4 14 8 S 1016,6 3,2 0,0
10.07.2019 22:00:00 14,8 13,9 14,6 7 4 11 6 S 1016,8 5 0,0
10.07.2019 21:00:00 15,2 14,1 15,2 11 6 14 8 S 1017,1 7 0,0
10.07.2019 20:00:00 15,4 14,1 15,6 7 4 18 10 S 1017,6 8 0,0
10.07.2019 19:00:00 15,0 13,6 15,2 11 6 18 10 S 1018,1 10 0,0
10.07.2019 18:00:00 14,8 13,2 15,3 14 8 18 10 S 1018,5 10 0,3
10.07.2019 17:00:00 14,3 12,8 14,7 11 6 22 12 SSW 1019,1 9 0,8
10.07.2019 16:00:00 14,8 12,5 15,2 14 8 18 10 SW 1019,6 7 0,4
10.07.2019 15:00:00 15,0 11,5 15,8 11 6 14 8 SSW 1020,0 18 1,2
10.07.2019 14:00:00 15,2 10,4 14,9 11 6 22 12 SW 1020,3 14 0,5
10.07.2019 13:00:00 17,0 8,3 17,4 11 6 18 10 SSW 1020,3 49 0,0
10.07.2019 12:00:00 16,7 8,1 17,1 14 8 18 10 SSW 1020,3 46 0,0
10.07.2019 11:00:00 16,4 8,4 17,4 11 6 18 10 S 1020,4 37 0,0
10.07.2019 10:00:00 15,6 10,0 17,1 11 6 18 10 S 1020,6 37 0,0
10.07.2019 09:00:00 14,3 10,1 14,7 11 6 18 10 S 1020,7 34 0,0
10.07.2019 08:00:00 13,5 11,0 14,0 7 4 11 6 SSW 1021,0 31 0,0
10.07.2019 07:00:00 12,7 10,0 12,3 4 2 7 4 SE 1020,9 38 0,0
10.07.2019 06:00:00 11,7 9,6 10,4 4 2 11 6 S 1020,9 30 0,0
10.07.2019 05:00:00 11,5 9,8 10,5 7 4 11 6 SSE 1021,0 24 0,0
10.07.2019 04:00:00 11,4 9,5 10,0 0 0 4 2 N 1021,4 27 0,0
10.07.2019 03:00:00 10,7 9,0 8,1 0 0 4 2 N 1021,6 33 0,0
10.07.2019 02:00:00 10,4 8,4 5,8 4 2 4 2 S 1021,7 37 0,0
10.07.2019 01:00:00 11,5 8,9 6,1 4 2 4 2 NE 1021,7 38 0,0
10.07.2019 00:00:00 11,9 9,5 7,4 4 2 7 4 NE 1021,7 40 0,0

tt = Température de l'air
td = dewpoint
tt 5cm = Température de l'air 5cm
ff = Vitesse du vent
fx = gusts
dd = Direction du vent
ppp = reduced air pressure
vv = visibility
rr = Quantités de précipitations

stations d'obs. à proximité